Location: *
(48.8780°N, 19.2358°E)
Time: 11:55:04
(UTC+00:00)

Cosmos 2061 Rocket - Pass Details

Date: 18 October 2019
Orbit: 965 x 1013 km, 82.9° (Epoch: 16 November)

Event Time Altitude Azimuth Distance (km) Brightness Sun altitude
Rises 18:54:22 0° 347° (NNW) 3,700 7.5 -30.9°
Reaches altitude 10° 18:56:56 10° 344° (NNW) 2,741 6.8 -31.3°
Maximum altitude 19:03:03 57° 268° (W) 1,135 4.4 -32.2°
Enters shadow 19:04:10 50° 229° (SW) 1,222 4.5 -32.3°
